Location: La Brionne
(46.1728°N, 1.7849°E)
Time: 12:28:26
(UTC+00:00)

Cosmos 2219 Rocket - Pass Details

Date: 30 October 2021
Orbit: 826 x 848 km, 71.0° (Epoch: 01 December)

Event Time Altitude Azimuth Distance (km) Brightness Sun altitude
Rises 19:59:51 0° 249° (WSW) 3,365 6.0 -34.6°
Reaches altitude 10° 20:02:51 10° 265° (W) 2,438 5.3 -35.1°
Maximum altitude 20:07:05 22° 314° (NW) 1,767 4.3 -35.8°
Enters shadow 20:09:56 15° 352° (N) 2,103 4.5 -36.3°
